Time,TemperatureF,DewpointF,PressureIn,WindDirection,WindDirectionDegrees,WindSpeedMPH,WindSpeedGustMPH,Humidity,HourlyPrecipIn,Conditions,Clouds,dailyrainin,SoftwareType,DateUTC
2013-09-13 00:01:00,72.7,22.4,29.85,SW,225,-999.0,-999.0,15,0.00,,OVC250,0.00,VWS V14.01,2013-09-13 04:01:00,
2013-09-13 00:02:00,72.7,22.4,29.85,SW,225,-999.0,-999.0,15,0.00,,OVC250,0.00,VWS V14.01,2013-09-13 04:02:00,
2013-09-13 00:07:00,72.6,19.0,29.85,SW,225,-999.0,-999.0,13,0.00,,OVC250,0.00,VWS V14.01,2013-09-13 04:07:00,
2013-09-13 00:12:00,72.6,19.0,29.85,SW,225,-999.0,-999.0,13,0.00,,OVC250,0.00,VWS V14.01,2013-09-13 04:12:00,
2013-09-13 00:17:00,72.4,16.9,29.85,SW,225,-999.0,-999.0,12,0.00,,OVC250,0.00,VWS V14.01,2013-09-13 04:17:00,
2013-09-13 00:22:00,72.4,16.9,29.85,SW,225,-999.0,-999.0,12,0.00,,OVC250,0.00,VWS V14.01,2013-09-13 04:22:00,
2013-09-13 00:27:00,72.4,14.9,29.85,SW,225,-999.0,-999.0,11,0.00,,OVC250,0.00,VWS V14.01,2013-09-13 04:27:00,
2013-09-13 00:32:00,72.2,16.8,29.85,SW,225,-999.0,-999.0,12,0.00,,OVC250,0.00,VWS V14.01,2013-09-13 04:32:00,
2013-09-13 00:37:00,72.0,16.6,29.85,SW,225,-999.0,-999.0,12,0.00,,OVC250,0.00,VWS V14.01,2013-09-13 04:37:00,
2013-09-13 00:42:00,72.0,14.6,29.85,SW,225,-999.0,-999.0,11,0.00,,OVC250,0.00,VWS V14.01,2013-09-13 04:42:00,
2013-09-13 00:47:00,71.8,14.5,29.85,SW,225,-999.0,-999.0,11,0.00,,OVC250,0.00,VWS V14.01,2013-09-13 04:47:00,
2013-09-13 00:52:00,71.8,12.3,29.85,SW,225,-999.0,-999.0,10,0.00,,OVC250,0.00,VWS V14.01,2013-09-13 04:52:00,
2013-09-13 00:57:00,71.7,7.3,29.85,SW,225,-999.0,-999.0,8,0.00,,OVC250,0.00,VWS V14.01,2013-09-13 04:57:00,
2013-09-13 01:02:00,71.7,12.2,29.84,SW,225,-999.0,-999.0,10,0.00,,OVC250,0.00,VWS V14.01,2013-09-13 05:02:00,
2013-09-13 01:07:00,71.5,4.2,29.84,SW,225,-999.0,-999.0,7,0.00,,OVC250,0.00,VWS V14.01,2013-09-13 05:07:00,
2013-09-13 01:12:00,71.3,0.7,29.84,SW,225,-999.0,-999.0,6,0.00,,OVC250,0.00,VWS V14.01,2013-09-13 05:12:00,
2013-09-13 01:17:00,71.3,0.7,29.83,SW,225,-999.0,-999.0,6,0.00,,OVC250,0.00,VWS V14.01,2013-09-13 05:17:00,
2013-09-13 01:22:00,71.1,-13.7,29.83,SW,225,-999.0,-999.0,3,0.00,,OVC250,0.00,VWS V14.01,2013-09-13 05:22:00,
2013-09-13 01:27:00,70.9,-21.7,29.83,SW,225,-999.0,-999.0,2,0.00,,OVC250,0.00,VWS V14.01,2013-09-13 05:27:00,
2013-09-13 01:32:00,70.9,-21.7,29.83,SW,225,-999.0,-999.0,2,0.00,,OVC250,0.00,VWS V14.01,2013-09-13 05:32:00,
2013-09-13 01:37:00,70.9,-21.7,29.83,SW,225,-999.0,-999.0,2,0.00,,OVC250,0.00,VWS V14.01,2013-09-13 05:37:00,
2013-09-13 01:42:00,70.9,-34.4,29.82,SW,225,-999.0,-999.0,1,0.00,,OVC250,0.00,VWS V14.01,2013-09-13 05:42:00,
2013-09-13 01:47:00,70.9,-34.4,29.82,SW,225,-999.0,-999.0,1,0.00,,OVC250,0.00,VWS V14.01,2013-09-13 05:47:00,
2013-09-13 01:52:00,70.9,-34.4,29.82,SW,225,-999.0,-999.0,1,0.00,,OVC250,0.00,VWS V14.01,2013-09-13 05:52:00,
2013-09-13 01:57:00,70.9,-34.4,29.81,SW,225,-999.0,-999.0,1,0.00,,OVC250,0.00,VWS V14.01,2013-09-13 05:57:00,
2013-09-13 02:02:00,70.9,-34.4,29.81,SW,225,-999.0,-999.0,1,0.00,,OVC250,0.00,VWS V14.01,2013-09-13 06:02:00,
2013-09-13 02:07:00,70.9,-34.4,29.81,SW,225,-999.0,-999.0,1,0.00,,OVC250,0.00,VWS V14.01,2013-09-13 06:07:00,
2013-09-13 02:12:00,70.9,-34.4,29.81,SW,225,-999.0,-999.0,1,0.00,,OVC250,0.00,VWS V14.01,2013-09-13 06:12:00,
2013-09-13 02:17:00,70.9,-34.4,29.81,SW,225,-999.0,-999.0,1,0.00,,OVC250,0.00,VWS V14.01,2013-09-13 06:17:00,
2013-09-13 02:22:00,70.8,-34.5,29.81,SW,225,-999.0,-999.0,1,0.00,,OVC250,0.00,VWS V14.01,2013-09-13 06:22:00,
2013-09-13 02:27:00,70.8,-34.5,29.81,SW,225,-999.0,-999.0,1,0.00,,OVC250,0.00,VWS V14.01,2013-09-13 06:27:00,
2013-09-13 02:32:00,70.6,-34.6,29.81,SW,225,-999.0,-999.0,1,0.00,,OVC250,0.00,VWS V14.01,2013-09-13 06:32:00,
2013-09-13 02:37:00,70.8,-34.5,29.82,West,270,-999.0,-999.0,1,0.00,,OVC250,0.00,VWS V14.01,2013-09-13 06:37:00,
2013-09-13 02:42:00,70.8,-34.5,29.82,WNW,292,-999.0,-999.0,1,0.00,,OVC250,0.00,VWS V14.01,2013-09-13 06:42:00,
2013-09-13 02:47:00,70.8,-34.5,29.82,WNW,292,-999.0,-999.0,1,0.00,,OVC250,0.00,VWS V14.01,2013-09-13 06:47:00,
2013-09-13 02:52:00,70.9,-34.4,29.82,SSW,202,-999.0,-999.0,1,0.00,,OVC250,0.00,VWS V14.01,2013-09-13 06:52:00,
2013-09-13 02:57:00,70.9,-34.4,29.81,SSW,202,-999.0,-999.0,1,0.00,,OVC250,0.00,VWS V14.01,2013-09-13 06:57:00,
2013-09-13 03:02:00,71.1,-34.3,29.81,SSW,202,-999.0,-999.0,1,0.00,,OVC160,0.00,VWS V14.01,2013-09-13 07:02:00,
2013-09-13 03:07:00,70.9,-34.4,29.81,ESE,112,-999.0,-999.0,1,0.00,,OVC160,0.00,VWS V14.01,2013-09-13 07:07:00,
2013-09-13 03:12:00,71.1,-34.3,29.81,SE,135,-999.0,-999.0,1,0.00,,OVC160,0.00,VWS V14.01,2013-09-13 07:12:00,
2013-09-13 03:17:00,71.1,-34.3,29.81,SSE,158,-999.0,-999.0,1,0.00,,OVC160,0.00,VWS V14.01,2013-09-13 07:17:00,
2013-09-13 03:22:00,71.1,-34.3,29.81,SW,225,-999.0,-999.0,1,0.00,,OVC160,0.00,VWS V14.01,2013-09-13 07:22:00,
2013-09-13 03:27:00,71.1,-34.3,29.81,SW,225,-999.0,-999.0,1,0.00,,OVC160,0.00,VWS V14.01,2013-09-13 07:27:00,
2013-09-13 03:31:00,71.3,-34.2,29.80,SW,225,-999.0,-999.0,1,0.00,,OVC160,0.00,VWS V14.01,2013-09-13 07:31:00,
2013-09-13 03:36:00,71.1,-34.3,29.80,SW,225,-999.0,-999.0,1,0.00,,OVC160,0.00,VWS V14.01,2013-09-13 07:36:00,
2013-09-13 03:41:00,71.1,-34.3,29.80,SW,225,-999.0,-999.0,1,0.00,,OVC160,0.00,VWS V14.01,2013-09-13 07:41:00,
2013-09-13 03:46:00,71.1,-34.3,29.80,SW,225,-999.0,-999.0,1,0.00,,OVC160,0.00,VWS V14.01,2013-09-13 07:46:00,
2013-09-13 03:51:00,70.9,-34.4,29.80,SW,225,-999.0,-999.0,1,0.00,,OVC160,0.00,VWS V14.01,2013-09-13 07:51:00,
2013-09-13 03:56:00,70.9,-34.4,29.80,SW,225,-999.0,-999.0,1,0.00,,OVC160,0.00,VWS V14.01,2013-09-13 07:56:00,
2013-09-13 04:01:00,70.8,-34.5,29.80,SW,225,-999.0,-999.0,1,0.00,,OVC250,0.00,VWS V14.01,2013-09-13 08:01:00,
2013-09-13 04:06:00,70.8,-34.5,29.80,SW,225,-999.0,-999.0,1,0.00,,OVC250,0.00,VWS V14.01,2013-09-13 08:06:00,
2013-09-13 04:11:00,70.6,-34.6,29.80,SW,225,-999.0,-999.0,1,0.00,,OVC250,0.00,VWS V14.01,2013-09-13 08:11:00,
2013-09-13 04:16:00,70.6,-34.6,29.80,SW,225,-999.0,-999.0,1,0.00,,OVC250,0.00,VWS V14.01,2013-09-13 08:16:00,
2013-09-13 04:21:00,70.4,-34.7,29.80,SW,225,-999.0,-999.0,1,0.00,,OVC250,0.00,VWS V14.01,2013-09-13 08:21:00,
2013-09-13 04:26:00,70.2,-34.8,29.80,ENE,68,-999.0,-999.0,1,0.00,,OVC250,0.00,VWS V14.01,2013-09-13 08:26:00,
2013-09-13 04:31:00,70.2,-34.8,29.80,East,90,-999.0,-999.0,1,0.00,,OVC250,0.00,VWS V14.01,2013-09-13 08:31:00,
2013-09-13 04:36:00,70.2,-34.8,29.80,East,90,-999.0,-999.0,1,0.00,,OVC250,0.00,VWS V14.01,2013-09-13 08:36:00,
2013-09-13 04:41:00,70.0,-35.0,29.80,ENE,68,-999.0,-999.0,1,0.00,,OVC250,0.00,VWS V14.01,2013-09-13 08:41:00,
2013-09-13 04:46:00,69.9,-35.0,29.80,ENE,68,-999.0,-999.0,1,0.00,,OVC250,0.00,VWS V14.01,2013-09-13 08:46:00,
2013-09-13 04:51:00,69.9,-35.0,29.79,ENE,68,-999.0,-999.0,1,0.00,,OVC250,0.00,VWS V14.01,2013-09-13 08:51:00,
2013-09-13 04:56:00,69.7,-35.1,29.80,ENE,68,-999.0,-999.0,1,0.00,,OVC250,0.00,VWS V14.01,2013-09-13 08:56:00,
2013-09-13 05:01:00,69.5,-35.2,29.80,ENE,68,-999.0,-999.0,1,0.00,,OVC250,0.00,VWS V14.01,2013-09-13 09:01:00,
2013-09-13 05:06:00,69.5,-35.2,29.80,SE,135,-999.0,-999.0,1,0.00,,OVC250,0.00,VWS V14.01,2013-09-13 09:06:00,
2013-09-13 05:11:00,69.5,-35.2,29.80,SE,135,-999.0,-999.0,1,0.00,,OVC250,0.00,VWS V14.01,2013-09-13 09:11:00,
2013-09-13 05:16:00,69.5,-35.2,29.80,SE,135,-999.0,-999.0,1,0.00,,OVC250,0.00,VWS V14.01,2013-09-13 09:16:00,
2013-09-13 05:21:00,69.3,-35.4,29.80,SE,135,-999.0,-999.0,1,0.00,,OVC250,0.00,VWS V14.01,2013-09-13 09:21:00,
2013-09-13 05:26:00,69.3,-35.4,29.80,SE,135,-999.0,-999.0,1,0.00,,OVC250,0.00,VWS V14.01,2013-09-13 09:26:00,
2013-09-13 05:31:00,69.1,-35.5,29.80,SE,135,-999.0,-999.0,1,0.00,,OVC250,0.00,VWS V14.01,2013-09-13 09:31:00,
2013-09-13 05:36:00,69.1,-35.5,29.80,SE,135,-999.0,-999.0,1,0.00,,OVC250,0.00,VWS V14.01,2013-09-13 09:36:00,
2013-09-13 05:41:00,69.1,-35.5,29.80,West,270,-999.0,-999.0,1,0.00,,OVC250,0.00,VWS V14.01,2013-09-13 09:41:00,
2013-09-13 05:46:00,69.1,-35.5,29.80,West,270,-999.0,-999.0,1,0.00,,OVC250,0.00,VWS V14.01,2013-09-13 09:46:00,
2013-09-13 05:51:00,69.1,-35.5,29.81,West,270,-999.0,-999.0,1,0.00,,OVC250,0.00,VWS V14.01,2013-09-13 09:51:00,
2013-09-13 05:56:00,69.0,-35.5,29.81,West,270,-999.0,-999.0,1,0.00,,OVC250,0.00,VWS V14.01,2013-09-13 09:56:00,
2013-09-13 06:01:00,69.0,-35.5,29.81,West,270,-999.0,-999.0,1,0.00,,SCT250,0.00,VWS V14.01,2013-09-13 10:01:00,
2013-09-13 06:06:00,68.8,-35.7,29.81,West,270,-999.0,-999.0,1,0.00,,SCT250,0.00,VWS V14.01,2013-09-13 10:06:00,
2013-09-13 06:11:00,68.8,-35.7,29.81,West,270,-999.0,-999.0,1,0.00,,SCT250,0.00,VWS V14.01,2013-09-13 10:11:00,
2013-09-13 06:16:00,68.6,-35.8,29.81,West,270,-999.0,-999.0,1,0.00,,SCT250,0.00,VWS V14.01,2013-09-13 10:16:00,
2013-09-13 06:21:00,68.4,-35.9,29.81,West,270,-999.0,-999.0,1,0.00,,SCT250,0.00,VWS V14.01,2013-09-13 10:21:00,
2013-09-13 06:26:00,68.4,-35.9,29.82,West,270,-999.0,-999.0,1,0.00,,SCT250,0.00,VWS V14.01,2013-09-13 10:26:00,
2013-09-13 06:31:00,68.4,-35.9,29.82,West,270,-999.0,-999.0,1,0.00,,SCT250,0.00,VWS V14.01,2013-09-13 10:31:00,
2013-09-13 06:36:00,68.2,-36.0,29.82,West,270,-999.0,-999.0,1,0.00,,SCT250,0.00,VWS V14.01,2013-09-13 10:36:00,
2013-09-13 06:41:00,68.1,-36.1,29.82,West,270,-999.0,-999.0,1,0.00,,SCT250,0.00,VWS V14.01,2013-09-13 10:41:00,
2013-09-13 06:46:00,68.1,-36.1,29.82,West,270,-999.0,-999.0,1,0.00,,SCT250,0.00,VWS V14.01,2013-09-13 10:46:00,
2013-09-13 06:51:00,68.1,-36.1,29.82,West,270,-999.0,-999.0,1,0.00,,SCT250,0.00,VWS V14.01,2013-09-13 10:51:00,
2013-09-13 06:56:00,67.9,-36.2,29.83,North,0,-999.0,-999.0,1,0.00,,SCT250,0.00,VWS V14.01,2013-09-13 10:56:00,
2013-09-13 07:01:00,67.7,-36.3,29.83,North,0,-999.0,-999.0,1,0.00,,BKN250,0.00,VWS V14.01,2013-09-13 11:01:00,
2013-09-13 07:06:00,67.7,-36.3,29.83,North,0,-999.0,-999.0,1,0.00,,BKN250,0.00,VWS V14.01,2013-09-13 11:06:00,
2013-09-13 07:11:00,67.7,-36.3,29.83,North,0,-999.0,-999.0,1,0.00,,BKN250,0.00,VWS V14.01,2013-09-13 11:11:00,
2013-09-13 07:16:00,67.7,-36.3,29.83,North,0,-999.0,-999.0,1,0.00,,BKN250,0.00,VWS V14.01,2013-09-13 11:16:00,
2013-09-13 07:21:00,67.5,-36.5,29.83,North,0,-999.0,-999.0,1,0.00,,BKN250,0.00,VWS V14.01,2013-09-13 11:21:00,
2013-09-13 07:26:00,67.5,-36.5,29.83,North,0,-999.0,-999.0,1,0.00,,BKN250,0.00,VWS V14.01,2013-09-13 11:26:00,
2013-09-13 07:31:00,67.7,-36.3,29.84,North,0,-999.0,-999.0,1,0.00,,BKN250,0.00,VWS V14.01,2013-09-13 11:31:00,
2013-09-13 07:36:00,67.7,-36.3,29.84,North,0,-999.0,-999.0,1,0.00,,BKN250,0.00,VWS V14.01,2013-09-13 11:36:00,
2013-09-13 07:41:00,67.9,-36.2,29.84,North,0,-999.0,-999.0,1,0.00,,BKN250,0.00,VWS V14.01,2013-09-13 11:41:00,
2013-09-13 07:46:00,68.1,-36.1,29.84,North,0,-999.0,-999.0,1,0.00,,BKN250,0.00,VWS V14.01,2013-09-13 11:46:00,
2013-09-13 07:51:00,68.1,-36.1,29.84,North,0,-999.0,-999.0,1,0.00,,BKN250,0.00,VWS V14.01,2013-09-13 11:51:00,
2013-09-13 07:56:00,68.2,-36.0,29.84,North,0,-999.0,-999.0,1,0.00,,BKN250,0.00,VWS V14.01,2013-09-13 11:56:00,
2013-09-13 08:01:00,68.4,-35.9,29.84,North,0,-999.0,-999.0,1,0.00,,SCT250,0.00,VWS V14.01,2013-09-13 12:01:00,
2013-09-13 08:06:00,69.0,-35.5,29.84,East,90,-999.0,-999.0,1,0.00,,SCT250,0.00,VWS V14.01,2013-09-13 12:06:00,
2013-09-13 08:11:00,69.3,-35.4,29.84,East,90,-999.0,-999.0,1,0.00,,SCT250,0.00,VWS V14.01,2013-09-13 12:11:00,
2013-09-13 08:16:00,69.7,-35.1,29.84,East,90,-999.0,-999.0,1,0.00,,SCT250,0.00,VWS V14.01,2013-09-13 12:16:00,
2013-09-13 08:21:00,70.2,-34.8,29.84,NE,45,-999.0,-999.0,1,0.00,,SCT250,0.00,VWS V14.01,2013-09-13 12:21:00,
2013-09-13 08:26:00,70.6,-34.6,29.84,NE,45,-999.0,-999.0,1,0.00,,SCT250,0.00,VWS V14.01,2013-09-13 12:26:00,
2013-09-13 08:31:00,70.9,-34.4,29.84,ENE,68,-999.0,-999.0,1,0.00,,SCT250,0.00,VWS V14.01,2013-09-13 12:31:00,
2013-09-13 08:36:00,71.5,-34.0,29.84,WSW,248,-999.0,-999.0,1,0.00,,SCT250,0.00,VWS V14.01,2013-09-13 12:36:00,
2013-09-13 08:41:00,72.0,-33.8,29.84,ENE,68,-999.0,-999.0,1,0.00,,SCT250,0.00,VWS V14.01,2013-09-13 12:41:00,
2013-09-13 08:46:00,72.4,-33.5,29.84,NNE,22,-999.0,-999.0,1,0.00,,SCT250,0.00,VWS V14.01,2013-09-13 12:46:00,
2013-09-13 08:51:00,72.9,-33.2,29.84,NNE,22,-999.0,-999.0,1,0.00,,SCT250,0.00,VWS V14.01,2013-09-13 12:51:00,
2013-09-13 08:56:00,73.3,-1.7,29.84,NNE,22,-999.0,-999.0,5,0.00,,SCT250,0.00,VWS V14.01,2013-09-13 12:56:00,
2013-09-13 09:01:00,73.9,34.9,29.84,NE,45,-999.0,-999.0,24,0.00,,SCT250,0.00,VWS V14.01,2013-09-13 13:01:00,
2013-09-13 09:06:00,74.4,36.4,29.84,North,0,-999.0,-999.0,25,0.00,,SCT250,0.00,VWS V14.01,2013-09-13 13:06:00,
2013-09-13 09:11:00,75.0,42.4,29.84,ENE,68,-999.0,-999.0,31,0.00,,SCT250,0.00,VWS V14.01,2013-09-13 13:11:00,
2013-09-13 09:16:00,75.0,43.2,29.84,WNW,292,-999.0,-999.0,32,0.00,,SCT250,0.00,VWS V14.01,2013-09-13 13:16:00,
2013-09-13 09:21:00,75.0,43.2,29.84,NNW,338,-999.0,-999.0,32,0.00,,SCT250,0.00,VWS V14.01,2013-09-13 13:21:00,
2013-09-13 09:26:00,75.0,43.2,29.84,ESE,112,-999.0,-999.0,32,0.00,,SCT250,0.00,VWS V14.01,2013-09-13 13:26:00,
2013-09-13 09:31:00,75.2,43.4,29.84,NNW,338,-999.0,-999.0,32,0.00,,SCT250,0.00,VWS V14.01,2013-09-13 13:31:00,
2013-09-13 09:36:00,75.2,45.0,29.85,NNE,22,-999.0,-999.0,34,0.00,,SCT250,0.00,VWS V14.01,2013-09-13 13:36:00,
2013-09-13 09:41:00,75.3,50.0,29.84,NE,45,-999.0,-999.0,41,0.00,,SCT250,0.00,VWS V14.01,2013-09-13 13:41:00,
2013-09-13 09:46:00,76.4,53.5,29.85,ENE,68,-999.0,-999.0,45,0.00,,SCT250,0.00,VWS V14.01,2013-09-13 13:46:00,
2013-09-13 09:51:00,76.8,56.8,29.85,NE,45,-999.0,-999.0,50,0.00,,SCT250,0.00,VWS V14.01,2013-09-13 13:51:00,
2013-09-13 09:56:00,76.8,58.9,29.85,ENE,68,-999.0,-999.0,54,0.00,,SCT250,0.00,VWS V14.01,2013-09-13 13:56:00,
2013-09-13 10:01:00,77.0,59.1,29.85,North,0,-999.0,-999.0,54,0.00,,FEW250,0.00,VWS V14.01,2013-09-13 14:01:00,
2013-09-13 10:06:00,77.1,59.2,29.85,North,0,-999.0,-999.0,54,0.00,,FEW250,0.00,VWS V14.01,2013-09-13 14:06:00,
2013-09-13 10:11:00,77.3,59.4,29.85,NNE,22,-999.0,-999.0,54,0.00,,FEW250,0.00,VWS V14.01,2013-09-13 14:11:00,
2013-09-13 10:16:00,77.5,60.1,29.85,NNE,22,-999.0,-999.0,55,0.00,,FEW250,0.00,VWS V14.01,2013-09-13 14:16:00,
2013-09-13 10:21:00,77.9,61.0,29.85,North,0,-999.0,-999.0,56,0.00,,FEW250,0.00,VWS V14.01,2013-09-13 14:21:00,
2013-09-13 10:26:00,78.0,60.5,29.85,NNE,22,-999.0,-999.0,55,0.00,,FEW250,0.00,VWS V14.01,2013-09-13 14:26:00,
2013-09-13 10:31:00,78.2,60.7,29.85,NNE,22,-999.0,-999.0,55,0.00,,FEW250,0.00,VWS V14.01,2013-09-13 14:31:00,
2013-09-13 10:36:00,78.2,60.7,29.85,NW,315,-999.0,-999.0,55,0.00,,FEW250,0.00,VWS V14.01,2013-09-13 14:36:00,
2013-09-13 10:41:00,78.8,61.3,29.85,SW,225,-999.0,-999.0,55,0.00,,FEW250,0.00,VWS V14.01,2013-09-13 14:41:00,
2013-09-13 10:46:00,79.1,61.0,29.85,ESE,112,-999.0,-999.0,54,0.00,,FEW250,0.00,VWS V14.01,2013-09-13 14:46:00,
2013-09-13 10:51:00,79.5,61.4,29.85,NNW,338,-999.0,-999.0,54,0.00,,FEW250,0.00,VWS V14.01,2013-09-13 14:51:00,
2013-09-13 10:56:00,79.5,60.9,29.85,ENE,68,-999.0,-999.0,53,0.00,,FEW250,0.00,VWS V14.01,2013-09-13 14:56:00,
2013-09-13 11:01:00,79.5,60.9,29.85,WSW,248,-999.0,-999.0,53,0.00,,SCT250,0.00,VWS V14.01,2013-09-13 15:01:00,
2013-09-13 11:06:00,79.7,60.5,29.85,WSW,248,-999.0,-999.0,52,0.00,,SCT250,0.00,VWS V14.01,2013-09-13 15:06:00,
2013-09-13 11:11:00,79.7,60.5,29.85,East,90,-999.0,-999.0,52,0.00,,SCT250,0.00,VWS V14.01,2013-09-13 15:11:00,
2013-09-13 11:16:00,79.7,60.0,29.85,NE,45,-999.0,-999.0,51,0.00,,SCT250,0.00,VWS V14.01,2013-09-13 15:16:00,
2013-09-13 11:21:00,80.0,60.3,29.85,NE,45,-999.0,-999.0,51,0.00,,SCT250,0.00,VWS V14.01,2013-09-13 15:21:00,
2013-09-13 11:26:00,80.7,61.4,29.85,NE,45,-999.0,-999.0,52,0.00,,SCT250,0.00,VWS V14.01,2013-09-13 15:26:00,
2013-09-13 11:31:00,81.3,61.4,29.85,North,0,-999.0,-999.0,51,0.00,,SCT250,0.00,VWS V14.01,2013-09-13 15:31:00,
2013-09-13 11:36:00,81.1,60.1,29.85,SE,135,-999.0,-999.0,49,0.00,,SCT250,0.00,VWS V14.01,2013-09-13 15:36:00,
2013-09-13 11:41:00,80.9,60.5,29.85,North,0,-999.0,-999.0,50,0.00,,SCT250,0.00,VWS V14.01,2013-09-13 15:41:00,
2013-09-13 11:46:00,80.9,60.5,29.85,NNE,22,-999.0,-999.0,50,0.00,,SCT250,0.00,VWS V14.01,2013-09-13 15:46:00,
2013-09-13 11:51:00,80.9,60.5,29.85,NNE,22,-999.0,-999.0,50,0.00,,SCT250,0.00,VWS V14.01,2013-09-13 15:51:00,
2013-09-13 11:56:00,80.9,61.1,29.84,East,90,-999.0,-999.0,51,0.00,,SCT250,0.00,VWS V14.01,2013-09-13 15:56:00,
2013-09-13 12:01:00,81.3,60.9,29.84,NW,315,-999.0,-999.0,50,0.00,,BKN250,0.00,VWS V14.01,2013-09-13 16:01:00,
2013-09-13 12:06:00,81.3,59.7,29.85,WNW,292,-999.0,-999.0,48,0.00,,BKN250,0.00,VWS V14.01,2013-09-13 16:06:00,
2013-09-13 12:11:00,81.5,59.9,29.84,NNW,338,-999.0,-999.0,48,0.00,,BKN250,0.00,VWS V14.01,2013-09-13 16:11:00,
2013-09-13 12:16:00,81.6,60.0,29.84,West,270,-999.0,-999.0,48,0.00,,BKN250,0.00,VWS V14.01,2013-09-13 16:16:00,
2013-09-13 12:21:00,81.5,59.9,29.84,ENE,68,-999.0,-999.0,48,0.00,,BKN250,0.00,VWS V14.01,2013-09-13 16:21:00,
2013-09-13 12:26:00,81.6,60.0,29.84,SSW,202,-999.0,-999.0,48,0.00,,BKN250,0.00,VWS V14.01,2013-09-13 16:26:00,
2013-09-13 12:31:00,82.0,60.4,29.84,NE,45,-999.0,-999.0,48,0.00,,BKN250,0.00,VWS V14.01,2013-09-13 16:31:00,
2013-09-13 12:36:00,82.2,59.3,29.84,NW,315,-999.0,-999.0,46,0.00,,BKN250,0.00,VWS V14.01,2013-09-13 16:36:00,
2013-09-13 12:41:00,82.2,60.0,29.84,NW,315,-999.0,-999.0,47,0.00,,BKN250,0.00,VWS V14.01,2013-09-13 16:41:00,
2013-09-13 12:46:00,82.2,60.0,29.83,NW,315,-999.0,-999.0,47,0.00,,BKN250,0.00,VWS V14.01,2013-09-13 16:46:00,
2013-09-13 12:51:00,82.5,60.2,29.83,West,270,-999.0,-999.0,47,0.00,,BKN250,0.00,VWS V14.01,2013-09-13 16:51:00,
2013-09-13 12:55:00,82.2,59.3,29.83,ENE,68,-999.0,-999.0,46,0.00,,BKN250,0.00,VWS V14.01,2013-09-13 16:55:00,
2013-09-13 13:00:00,82.2,59.3,29.83,NW,315,-999.0,-999.0,46,0.00,,CLR,0.00,VWS V14.01,2013-09-13 17:00:00,
2013-09-13 13:05:00,82.5,59.6,29.83,NW,315,-999.0,-999.0,46,0.00,,CLR,0.00,VWS V14.01,2013-09-13 17:05:00,
2013-09-13 13:10:00,82.7,59.2,29.83,SW,225,-999.0,-999.0,45,0.00,,CLR,0.00,VWS V14.01,2013-09-13 17:10:00,
2013-09-13 13:15:00,82.7,59.8,29.83,ENE,68,-999.0,-999.0,46,0.00,,CLR,0.00,VWS V14.01,2013-09-13 17:15:00,
2013-09-13 13:20:00,82.7,59.2,29.83,NW,315,-999.0,-999.0,45,0.00,,CLR,0.00,VWS V14.01,2013-09-13 17:20:00,
2013-09-13 13:25:00,82.9,60.0,29.83,NW,315,-999.0,-999.0,46,0.00,,CLR,0.00,VWS V14.01,2013-09-13 17:25:00,
2013-09-13 13:30:00,82.9,58.7,29.82,NW,315,-999.0,-999.0,44,0.00,,CLR,0.00,VWS V14.01,2013-09-13 17:30:00,
2013-09-13 13:35:00,83.1,60.2,29.82,NW,315,-999.0,-999.0,46,0.00,,CLR,0.00,VWS V14.01,2013-09-13 17:35:00,
2013-09-13 13:40:00,83.1,60.2,29.82,NW,315,-999.0,-999.0,46,0.00,,CLR,0.00,VWS V14.01,2013-09-13 17:40:00,
2013-09-13 13:45:00,83.4,58.5,29.82,NW,315,-999.0,-999.0,43,0.00,,CLR,0.00,VWS V14.01,2013-09-13 17:45:00,
2013-09-13 13:50:00,83.4,59.8,29.82,NW,315,-999.0,-999.0,45,0.00,,CLR,0.00,VWS V14.01,2013-09-13 17:50:00,
2013-09-13 13:55:00,83.8,58.9,29.81,NW,315,-999.0,-999.0,43,0.00,,CLR,0.00,VWS V14.01,2013-09-13 17:55:00,
2013-09-13 14:00:00,83.8,58.2,29.81,NW,315,-999.0,-999.0,42,0.00,,SCT250,0.00,VWS V14.01,2013-09-13 18:00:00,
2013-09-13 14:05:00,83.8,58.9,29.81,NW,315,-999.0,-999.0,43,0.00,,SCT250,0.00,VWS V14.01,2013-09-13 18:05:00,
2013-09-13 14:10:00,83.9,59.7,29.81,NW,315,-999.0,-999.0,44,0.00,,SCT250,0.00,VWS V14.01,2013-09-13 18:10:00,
2013-09-13 14:15:00,83.8,59.5,29.81,NW,315,-999.0,-999.0,44,0.00,,SCT250,0.00,VWS V14.01,2013-09-13 18:15:00,
2013-09-13 14:20:00,83.9,58.4,29.81,NW,315,-999.0,-999.0,42,0.00,,SCT250,0.00,VWS V14.01,2013-09-13 18:20:00,
2013-09-13 14:25:00,84.2,59.3,29.80,NW,315,-999.0,-999.0,43,0.00,,SCT250,0.00,VWS V14.01,2013-09-13 18:25:00,
2013-09-13 14:30:00,83.9,59.1,29.80,NW,315,-999.0,-999.0,43,0.00,,SCT250,0.00,VWS V14.01,2013-09-13 18:30:00,
2013-09-13 14:35:00,84.4,58.2,29.80,NW,315,-999.0,-999.0,41,0.00,,SCT250,0.00,VWS V14.01,2013-09-13 18:35:00,
2013-09-13 14:40:00,85.1,59.5,29.80,NW,315,-999.0,-999.0,42,0.00,,SCT250,0.00,VWS V14.01,2013-09-13 18:40:00,
2013-09-13 14:45:00,85.3,59.0,29.80,ESE,112,-999.0,-999.0,41,0.00,,SCT250,0.00,VWS V14.01,2013-09-13 18:45:00,
2013-09-13 14:50:00,85.1,58.8,29.80,NNW,338,-999.0,-999.0,41,0.00,,SCT250,0.00,VWS V14.01,2013-09-13 18:50:00,
2013-09-13 14:55:00,85.0,58.7,29.80,WNW,292,-999.0,-999.0,41,0.00,,SCT250,0.00,VWS V14.01,2013-09-13 18:55:00,
2013-09-13 15:00:00,85.5,59.8,29.80,NE,45,-999.0,-999.0,42,0.00,,SCT250,0.00,VWS V14.01,2013-09-13 19:00:00,
2013-09-13 15:05:00,85.9,59.5,29.79,WNW,292,-999.0,-999.0,41,0.00,,SCT250,0.00,VWS V14.01,2013-09-13 19:05:00,
2013-09-13 15:10:00,86.4,60.0,29.79,SSE,158,-999.0,-999.0,41,0.00,,SCT250,0.00,VWS V14.01,2013-09-13 19:10:00,
2013-09-13 15:15:00,85.9,58.1,29.79,SSW,202,-999.0,-999.0,39,0.00,,SCT250,0.00,VWS V14.01,2013-09-13 19:15:00,
2013-09-13 15:20:00,85.3,59.7,29.79,WNW,292,-999.0,-999.0,42,0.00,,SCT250,0.00,VWS V14.01,2013-09-13 19:20:00,
2013-09-13 15:25:00,85.5,59.2,29.79,NW,315,-999.0,-999.0,41,0.00,,SCT250,0.00,VWS V14.01,2013-09-13 19:25:00,
2013-09-13 15:30:00,85.5,59.2,29.79,NE,45,-999.0,-999.0,41,0.00,,SCT250,0.00,VWS V14.01,2013-09-13 19:30:00,
2013-09-13 15:35:00,85.7,59.3,29.78,NE,45,-999.0,-999.0,41,0.00,,SCT250,0.00,VWS V14.01,2013-09-13 19:35:00,
2013-09-13 15:40:00,85.1,58.8,29.78,NNW,338,-999.0,-999.0,41,0.00,,SCT250,0.00,VWS V14.01,2013-09-13 19:40:00,
2013-09-13 15:45:00,84.8,57.2,29.78,SE,135,-999.0,-999.0,39,0.00,,SCT250,0.00,VWS V14.01,2013-09-13 19:45:00,
2013-09-13 15:50:00,85.1,57.4,29.78,NNE,22,-999.0,-999.0,39,0.00,,SCT250,0.00,VWS V14.01,2013-09-13 19:50:00,
2013-09-13 15:55:00,85.1,58.8,29.78,NW,315,-999.0,-999.0,41,0.00,,SCT250,0.00,VWS V14.01,2013-09-13 19:55:00,
2013-09-13 16:00:00,85.3,59.0,29.78,NW,315,-999.0,-999.0,41,0.00,,SCT250,0.00,VWS V14.01,2013-09-13 20:00:00,
2013-09-13 16:05:00,85.7,59.3,29.78,East,90,-999.0,-999.0,41,0.00,,SCT250,0.00,VWS V14.01,2013-09-13 20:05:00,
2013-09-13 16:10:00,85.7,59.3,29.78,NW,315,-999.0,-999.0,41,0.00,,SCT250,0.00,VWS V14.01,2013-09-13 20:10:00,
2013-09-13 16:15:00,85.7,59.3,29.78,NNE,22,-999.0,-999.0,41,0.00,,SCT250,0.00,VWS V14.01,2013-09-13 20:15:00,
2013-09-13 16:20:00,85.5,57.8,29.78,NE,45,-999.0,-999.0,39,0.00,,SCT250,0.00,VWS V14.01,2013-09-13 20:20:00,
2013-09-13 16:25:00,85.7,58.0,29.78,SE,135,-999.0,-999.0,39,0.00,,SCT250,0.00,VWS V14.01,2013-09-13 20:25:00,
2013-09-13 16:30:00,85.7,59.3,29.78,SW,225,-999.0,-999.0,41,0.00,,SCT250,0.00,VWS V14.01,2013-09-13 20:30:00,
2013-09-13 16:35:00,85.1,58.8,29.78,North,0,-999.0,-999.0,41,0.00,,SCT250,0.00,VWS V14.01,2013-09-13 20:35:00,
2013-09-13 16:40:00,85.1,57.4,29.78,ENE,68,-999.0,-999.0,39,0.00,,SCT250,0.00,VWS V14.01,2013-09-13 20:40:00,
2013-09-13 16:45:00,85.1,57.4,29.78,WNW,292,-999.0,-999.0,39,0.00,,SCT250,0.00,VWS V14.01,2013-09-13 20:45:00,
2013-09-13 16:50:00,85.3,56.9,29.78,ENE,68,-999.0,-999.0,38,0.00,,SCT250,0.00,VWS V14.01,2013-09-13 20:50:00,
2013-09-13 16:55:00,85.3,56.1,29.78,NE,45,-999.0,-999.0,37,0.00,,SCT250,0.00,VWS V14.01,2013-09-13 20:55:00,
2013-09-13 17:00:00,85.1,56.7,29.78,ENE,68,-999.0,-999.0,38,0.00,,FEW070,0.00,VWS V14.01,2013-09-13 21:00:00,
2013-09-13 17:05:00,85.1,56.7,29.78,SW,225,-999.0,-999.0,38,0.00,,FEW070,0.00,VWS V14.01,2013-09-13 21:05:00,
2013-09-13 17:10:00,85.5,56.3,29.78,West,270,-999.0,-999.0,37,0.00,,FEW070,0.00,VWS V14.01,2013-09-13 21:10:00,
2013-09-13 17:15:00,85.9,56.7,29.78,SSW,202,-999.0,-999.0,37,0.00,,FEW070,0.00,VWS V14.01,2013-09-13 21:15:00,
2013-09-13 17:20:00,85.9,56.7,29.78,ENE,68,-999.0,-999.0,37,0.00,,FEW070,0.00,VWS V14.01,2013-09-13 21:20:00,
2013-09-13 17:25:00,85.7,55.7,29.78,ENE,68,-999.0,-999.0,36,0.00,,FEW070,0.00,VWS V14.01,2013-09-13 21:25:00,
2013-09-13 17:30:00,85.3,56.1,29.78,ENE,68,-999.0,-999.0,37,0.00,,FEW070,0.00,VWS V14.01,2013-09-13 21:30:00,
2013-09-13 17:35:00,85.3,54.6,29.78,NNW,338,-999.0,-999.0,35,0.00,,FEW070,0.00,VWS V14.01,2013-09-13 21:35:00,
2013-09-13 17:40:00,84.8,55.7,29.78,ENE,68,-999.0,-999.0,37,0.00,,FEW070,0.00,VWS V14.01,2013-09-13 21:40:00,
2013-09-13 17:45:00,84.2,55.2,29.78,East,90,-999.0,-999.0,37,0.00,,FEW070,0.00,VWS V14.01,2013-09-13 21:45:00,
2013-09-13 17:50:00,83.8,55.5,29.78,NNE,22,-999.0,-999.0,38,0.00,,FEW070,0.00,VWS V14.01,2013-09-13 21:50:00,
2013-09-13 17:55:00,83.6,56.0,29.78,NW,315,-999.0,-999.0,39,0.00,,FEW070,0.00,VWS V14.01,2013-09-13 21:55:00,
2013-09-13 18:00:00,83.6,56.7,29.78,West,270,-999.0,-999.0,40,0.00,,SCT070,0.00,VWS V14.01,2013-09-13 22:00:00,
2013-09-13 18:05:00,83.3,55.8,29.78,ENE,68,-999.0,-999.0,39,0.00,,SCT070,0.00,VWS V14.01,2013-09-13 22:05:00,
2013-09-13 18:10:00,83.1,57.0,29.78,North,0,-999.0,-999.0,41,0.00,,SCT070,0.00,VWS V14.01,2013-09-13 22:10:00,
2013-09-13 18:15:00,82.5,57.1,29.78,SW,225,-999.0,-999.0,42,0.00,,SCT070,0.00,VWS V14.01,2013-09-13 22:15:00,
2013-09-13 18:20:00,82.4,57.7,29.78,NNE,22,-999.0,-999.0,43,0.00,,SCT070,0.00,VWS V14.01,2013-09-13 22:20:00,
2013-09-13 18:25:00,82.0,57.3,29.79,NNE,22,-999.0,-999.0,43,0.00,,SCT070,0.00,VWS V14.01,2013-09-13 22:25:00,
2013-09-13 18:30:00,81.8,57.8,29.79,NNE,22,-999.0,-999.0,44,0.00,,SCT070,0.00,VWS V14.01,2013-09-13 22:30:00,
2013-09-13 18:35:00,81.6,56.9,29.79,SSE,158,-999.0,-999.0,43,0.00,,SCT070,0.00,VWS V14.01,2013-09-13 22:35:00,
2013-09-13 18:40:00,81.3,57.3,29.79,West,270,-999.0,-999.0,44,0.00,,SCT070,0.00,VWS V14.01,2013-09-13 22:40:00,
2013-09-13 18:45:00,81.1,57.1,29.79,NE,45,-999.0,-999.0,44,0.00,,SCT070,0.00,VWS V14.01,2013-09-13 22:45:00,
2013-09-13 18:50:00,80.9,57.0,29.79,ESE,112,-999.0,-999.0,44,0.00,,SCT070,0.00,VWS V14.01,2013-09-13 22:50:00,
2013-09-13 18:55:00,80.6,57.3,29.80,SW,225,-999.0,-999.0,45,0.00,,SCT070,0.00,VWS V14.01,2013-09-13 22:55:00,
2013-09-13 19:00:00,80.4,57.1,29.80,North,0,-999.0,-999.0,45,0.00,,SCT070,0.00,VWS V14.01,2013-09-13 23:00:00,
2013-09-13 19:05:00,80.2,57.0,29.80,ENE,68,-999.0,-999.0,45,0.00,,SCT070,0.00,VWS V14.01,2013-09-13 23:05:00,
2013-09-13 19:10:00,79.8,57.2,29.80,NNE,22,-999.0,-999.0,46,0.00,,SCT070,0.00,VWS V14.01,2013-09-13 23:10:00,
2013-09-13 19:15:00,79.7,57.1,29.80,ESE,112,-999.0,-999.0,46,0.00,,SCT070,0.00,VWS V14.01,2013-09-13 23:15:00,
2013-09-13 19:20:00,79.5,57.5,29.81,NNE,22,-999.0,-999.0,47,0.00,,SCT070,0.00,VWS V14.01,2013-09-13 23:20:00,
2013-09-13 19:25:00,79.3,57.3,29.81,NE,45,-999.0,-999.0,47,0.00,,SCT070,0.00,VWS V14.01,2013-09-13 23:25:00,
2013-09-13 19:30:00,78.9,57.0,29.81,ENE,68,-999.0,-999.0,47,0.00,,SCT070,0.00,VWS V14.01,2013-09-13 23:30:00,
2013-09-13 19:35:00,78.8,56.9,29.81,East,90,-999.0,-999.0,47,0.00,,SCT070,0.00,VWS V14.01,2013-09-13 23:35:00,
2013-09-13 19:40:00,78.8,56.9,29.82,North,0,-999.0,-999.0,47,0.00,,SCT070,0.00,VWS V14.01,2013-09-13 23:40:00,
2013-09-13 19:45:00,78.4,56.5,29.81,NE,45,-999.0,-999.0,47,0.00,,SCT070,0.00,VWS V14.01,2013-09-13 23:45:00,
2013-09-13 19:50:00,78.2,56.3,29.82,ENE,68,-999.0,-999.0,47,0.00,,SCT070,0.00,VWS V14.01,2013-09-13 23:50:00,
2013-09-13 19:55:00,78.0,55.6,29.82,NNE,22,-999.0,-999.0,46,0.00,,SCT070,0.00,VWS V14.01,2013-09-13 23:55:00,
2013-09-13 20:00:00,78.0,55.0,29.82,NNW,338,-999.0,-999.0,45,0.00,,SCT070,0.00,VWS V14.01,2013-09-14 00:00:00,
2013-09-13 20:05:00,77.9,54.9,29.83,SE,135,-999.0,-999.0,45,0.00,,SCT070,0.00,VWS V14.01,2013-09-14 00:05:00,
2013-09-13 20:10:00,77.7,54.7,29.83,WSW,248,-999.0,-999.0,45,0.00,,SCT070,0.00,VWS V14.01,2013-09-14 00:10:00,
2013-09-13 20:15:00,77.3,54.3,29.83,NNE,22,-999.0,-999.0,45,0.00,,SCT070,0.00,VWS V14.01,2013-09-14 00:15:00,
2013-09-13 20:20:00,77.1,54.2,29.83,North,0,-999.0,-999.0,45,0.00,,SCT070,0.00,VWS V14.01,2013-09-14 00:20:00,
2013-09-13 20:25:00,76.8,53.9,29.84,NE,45,-999.0,-999.0,45,0.00,,SCT070,0.00,VWS V14.01,2013-09-14 00:25:00,
2013-09-13 20:30:00,76.6,54.3,29.84,ESE,112,-999.0,-999.0,46,0.00,,SCT070,0.00,VWS V14.01,2013-09-14 00:30:00,
2013-09-13 20:35:00,76.2,54.5,29.84,ENE,68,-999.0,-999.0,47,0.00,,SCT070,0.00,VWS V14.01,2013-09-14 00:35:00,
2013-09-13 20:40:00,75.7,54.1,29.85,NE,45,-999.0,-999.0,47,0.00,,SCT070,0.00,VWS V14.01,2013-09-14 00:40:00,
2013-09-13 20:45:00,75.5,53.3,29.85,SSW,202,-999.0,-999.0,46,0.00,,SCT070,0.00,VWS V14.01,2013-09-14 00:45:00,
2013-09-13 20:50:00,75.5,53.3,29.86,ENE,68,-999.0,-999.0,46,0.00,,SCT070,0.00,VWS V14.01,2013-09-14 00:50:00,
2013-09-13 20:55:00,75.5,53.3,29.86,North,0,-999.0,-999.0,46,0.00,,SCT070,0.00,VWS V14.01,2013-09-14 00:55:00,
2013-09-13 21:00:00,75.3,53.2,29.86,NW,315,-999.0,-999.0,46,0.00,,FEW070,0.00,VWS V14.01,2013-09-14 01:00:00,
2013-09-13 21:05:00,75.2,53.6,29.86,NNE,22,-999.0,-999.0,47,0.00,,FEW070,0.00,VWS V14.01,2013-09-14 01:05:00,
2013-09-13 21:10:00,75.0,53.5,29.86,East,90,-999.0,-999.0,47,0.00,,FEW070,0.00,VWS V14.01,2013-09-14 01:10:00,
2013-09-13 21:15:00,74.8,53.3,29.87,ENE,68,-999.0,-999.0,47,0.00,,FEW070,0.00,VWS V14.01,2013-09-14 01:15:00,
2013-09-13 21:20:00,74.8,53.3,29.87,ENE,68,-999.0,-999.0,47,0.00,,FEW070,0.00,VWS V14.01,2013-09-14 01:20:00,
2013-09-13 21:25:00,74.7,52.5,29.87,North,0,-999.0,-999.0,46,0.00,,FEW070,0.00,VWS V14.01,2013-09-14 01:25:00,
2013-09-13 21:30:00,74.4,52.3,29.87,NNE,22,-999.0,-999.0,46,0.00,,FEW070,0.00,VWS V14.01,2013-09-14 01:30:00,
2013-09-13 21:35:00,74.3,52.8,29.88,NNE,22,-999.0,-999.0,47,0.00,,FEW070,0.00,VWS V14.01,2013-09-14 01:35:00,
2013-09-13 21:40:00,74.2,52.7,29.88,NNE,22,-999.0,-999.0,47,0.00,,FEW070,0.00,VWS V14.01,2013-09-14 01:40:00,
2013-09-13 21:45:00,73.8,52.3,29.88,NE,45,-999.0,-999.0,47,0.00,,FEW070,0.00,VWS V14.01,2013-09-14 01:45:00,
2013-09-13 21:50:00,73.6,52.1,29.88,ENE,68,-999.0,-999.0,47,0.00,,FEW070,0.00,VWS V14.01,2013-09-14 01:50:00,
2013-09-13 21:55:00,73.5,52.6,29.88,East,90,-999.0,-999.0,48,0.00,,FEW070,0.00,VWS V14.01,2013-09-14 01:55:00,
2013-09-13 22:00:00,73.3,53.0,29.88,NE,45,-999.0,-999.0,49,0.00,,FEW070,0.00,VWS V14.01,2013-09-14 02:00:00,
2013-09-13 22:05:00,72.9,52.6,29.88,ENE,68,-999.0,-999.0,49,0.00,,SCT065,0.00,VWS V14.01,2013-09-14 02:05:00,
2013-09-13 22:10:00,72.7,53.0,29.88,ENE,68,-999.0,-999.0,50,0.00,,SCT065,0.00,VWS V14.01,2013-09-14 02:10:00,
2013-09-13 22:15:00,72.4,53.2,29.88,NNW,338,-999.0,-999.0,51,0.00,,SCT065,0.00,VWS V14.01,2013-09-14 02:15:00,
2013-09-13 22:20:00,72.2,53.1,29.88,ENE,68,-999.0,-999.0,51,0.00,,SCT065,0.00,VWS V14.01,2013-09-14 02:20:00,
2013-09-13 22:25:00,72.0,52.9,29.89,NNE,22,-999.0,-999.0,51,0.00,,SCT065,0.00,VWS V14.01,2013-09-14 02:25:00,
2013-09-13 22:30:00,72.0,53.4,29.89,NE,45,-999.0,-999.0,52,0.00,,SCT065,0.00,VWS V14.01,2013-09-14 02:30:00,
2013-09-13 22:35:00,71.8,53.2,29.88,NE,45,-999.0,-999.0,52,0.00,,SCT065,0.00,VWS V14.01,2013-09-14 02:35:00,
2013-09-13 22:40:00,71.7,53.1,29.89,NE,45,-999.0,-999.0,52,0.00,,SCT065,0.00,VWS V14.01,2013-09-14 02:40:00,
2013-09-13 22:45:00,71.7,53.1,29.89,ENE,68,-999.0,-999.0,52,0.00,,SCT065,0.00,VWS V14.01,2013-09-14 02:45:00,
2013-09-13 22:49:00,71.5,53.0,29.89,ENE,68,-999.0,-999.0,52,0.00,,SCT065,0.00,VWS V14.01,2013-09-14 02:49:00,
2013-09-13 22:54:00,71.3,52.8,29.89,NE,45,-999.0,-999.0,52,0.00,,SCT065,0.00,VWS V14.01,2013-09-14 02:54:00,
2013-09-13 22:59:00,70.9,52.4,29.90,NE,45,-999.0,-999.0,52,0.00,,SCT065,0.00,VWS V14.01,2013-09-14 02:59:00,
2013-09-13 23:04:00,70.9,52.4,29.90,NNE,22,-999.0,-999.0,52,0.00,,BKN070,0.00,VWS V14.01,2013-09-14 03:04:00,
2013-09-13 23:09:00,70.9,52.4,29.90,North,0,-999.0,-999.0,52,0.00,,BKN070,0.00,VWS V14.01,2013-09-14 03:09:00,
2013-09-13 23:14:00,70.9,52.4,29.90,East,90,-999.0,-999.0,52,0.00,,BKN070,0.00,VWS V14.01,2013-09-14 03:14:00,
2013-09-13 23:19:00,70.9,52.4,29.90,NE,45,-999.0,-999.0,52,0.00,,BKN070,0.00,VWS V14.01,2013-09-14 03:19:00,
2013-09-13 23:24:00,70.8,52.3,29.90,NNE,22,-999.0,-999.0,52,0.00,,BKN070,0.00,VWS V14.01,2013-09-14 03:24:00,
2013-09-13 23:29:00,70.6,52.1,29.90,NE,45,-999.0,-999.0,52,0.00,,BKN070,0.00,VWS V14.01,2013-09-14 03:29:00,
2013-09-13 23:34:00,70.6,51.6,29.90,ENE,68,-999.0,-999.0,51,0.00,,BKN070,0.00,VWS V14.01,2013-09-14 03:34:00,
2013-09-13 23:39:00,70.6,51.6,29.90,East,90,-999.0,-999.0,51,0.00,,BKN070,0.00,VWS V14.01,2013-09-14 03:39:00,
2013-09-13 23:44:00,70.8,51.8,29.90,ENE,68,-999.0,-999.0,51,0.00,,BKN070,0.00,VWS V14.01,2013-09-14 03:44:00,
2013-09-13 23:49:00,70.6,51.6,29.90,North,0,-999.0,-999.0,51,0.00,,BKN070,0.00,VWS V14.01,2013-09-14 03:49:00,
2013-09-13 23:54:00,70.4,51.4,29.90,ENE,68,-999.0,-999.0,51,0.00,,BKN070,0.00,VWS V14.01,2013-09-14 03:54:00,
2013-09-13 23:59:00,70.2,51.2,29.90,East,90,-999.0,-999.0,51,0.00,,BKN070,0.00,VWS V14.01,2013-09-14 03:59:00,